Regional Weather Roundup
Issued by NWS

Home | Current Version | Previous Version | Graphics & Text | Print | Product List | Glossary Off
Versions: 1 2 3 4 5 6 7 8 9 10 11 12 13 14 15 16 17 18 19 20 21 22 23 24 25 26 27 28 29 30 31 32 33 34 35 36 37 38 39 40 41 42 43 44 45 46 47 48 49 50

034
ASUS43 KDMX 241403
RWRIA

WEATHER ROUNDUP FOR IOWA
NATIONAL WEATHER SERVICE DES MOINES IA
900 AM CDT TUE MAY 24 2016

NOTE: "FAIR" INDICATES FEW OR NO CLOUDS BELOW 12,000 FEET WITH NO
SIGNIFICANT WEATHER AND/OR OBSTRUCTIONS TO VISIBILITY.

* - THESE STATIONS ARE NOT NWS STATIONS...THUS NOT UNDER NWS
QUALITY CONTROL.  THEY ALSO DO NOT REPORT WEATHER SUCH
AS PRECIPITATION OR FOG.

IAZ001>003-012>014-020>022-031>034-043>046-241500-
   NORTHWEST IOWA

CITY           SKY/WX    TMP DP  RH WIND       PRES   REMARKS
CARROLL *      SUNNY     64  63  94 SW10      29.89F
CHEROKEE *     CLOUDY    64  63  94 SW8       29.89S
DENISON *      MOSUNNY   63  63 100 VRB5      29.87F
LE MARS *      PTSUNNY   64  63  94 S10       29.88F FOG
ORANGE CITY *  CLOUDY    64  63  94 S9        29.88S FOG
SHELDON *      CLOUDY    63  63 100 S12       29.87S
SIOUX CITY     CLOUDY    65  60  84 S7        29.88S
SPENCER        PTSUNNY   66  61  84 SW13      29.89F
STORM LAKE *   SUNNY     64  61  88 SW14      29.90S
$$

IAZ055>058-069>071-079>083-090>094-241500-
   SOUTHWEST IOWA

CITY           SKY/WX    TMP DP  RH WIND       PRES   REMARKS
ATLANTIC *     CLOUDY    64  63  94 S6        29.90F
AUDUBON *        N/A     64  61  88 S3        29.90F
CLARINDA *       N/A     66  63  88 MISG      29.91S
COUNCIL BLFS * SUNNY     64  64 100 S6        29.90S
CRESTON *      MOSUNNY   64  63  94 S10       29.92F
HARLAN  *        N/A    N/A N/A N/A MISG        N/A
LAMONI         CLOUDY    65  63  93 S9        29.90F
RED OAK *      CLOUDY    66  64  94 S8        29.91R
SHENANDOAH *   PTSUNNY   66  66 100 CALM      29.92R
$$

IAZ047>049-059>061-072>074-084-241500-
   CENTRAL IOWA

CITY           SKY/WX    TMP DP  RH WIND       PRES   REMARKS
AMES           PTSUNNY   67  63  87 S5        29.91S
ANKENY *       CLOUDY    68  64  88 CALM      29.90F
BOONE *        SUNNY     66  63  88 SW6       29.90F
CHARITON *     MOSUNNY   68  63  83 S13G20    29.92F
DES MOINES     CLOUDY    67  61  81 SE6       29.91F
GRINNELL*      PTSUNNY   66  61  82 S7        29.94S
KNOXVILLE *    CLOUDY    68  61  77 S10       29.91F
MARSHALLTOWN   PTSUNNY   68  64  87 S8        29.91R
NEWTON *       CLOUDY    66  64  94 S7        29.92F
PELLA *        CLOUDY    69  61  75 S6        29.94
PERRY *          N/A     67  64  89 SW8       29.90F
$$

IAZ004>006-015-016-023>025-035-036-241500-
   NORTH CENTRAL IOWA

CITY           SKY/WX    TMP DP  RH WIND       PRES   REMARKS
ALGONA *       SUNNY     66  61  82 SW12      29.90F
CLARION *      SUNNY     64  63  94 SW12      29.90F
ESTHERVILLE    CLOUDY    65  61  87 SW12      29.88F
FORT DODGE *   PTSUNNY   64  57  77 S8        29.91S
MASON CITY     CLOUDY    66  61  84 W5        29.92R
FOREST CITY *    N/A     64  59  82 CALM      29.90F
WEBSTER CITY * SUNNY     66  63  88 S13       29.89F
IOWA FALLS *     N/A     68  63  83 SW9       29.92F
$$

IAZ007>011-017>019-026>030-037>042-050>054-066-241500-
   NORTHEAST IOWA

CITY           SKY/WX    TMP DP  RH WIND       PRES   REMARKS
CEDAR RAPIDS   CLOUDY    68  65  90 S9        29.94R
CHARLES CITY * PTSUNNY   66  64  94 SW5       29.92S
CLINTON *      SUNNY     73  59  61 S10       29.96
DECORAH *      PTSUNNY   66  61  82 CALM      29.90R
DUBUQUE        PTSUNNY   69  58  67 S8        29.94R
MONTICELLO *   CLOUDY    72  61  68 S9        29.92R
OELWEIN *      CLOUDY    68  63  83 SW9       29.93R
WATERLOO       PTSUNNY   69  62  78 S10       29.92R
$$

IAZ064-065-067-068-078-241500-
   EAST CENTRAL IOWA

CITY           SKY/WX    TMP DP  RH WIND       PRES   REMARKS
DAVENPORT      SUNNY     73  57  57 S10       29.96R
IOWA CITY      CLOUDY    70  61  73 W7        29.96R
MT. PLEASANT * CLOUDY    73  63  68 S7        29.95R
MUSCATINE *    SUNNY     73  59  60 S8        29.95R
QUAD CITIES    SUNNY     73  58  59 S7        29.94S
$$

IAZ062-063-075>077-085>089-095>099-241500-
   SOUTHEAST IOWA

CITY           SKY/WX    TMP DP  RH WIND       PRES   REMARKS
BURLINGTON     SUNNY     71  60  68 S10       29.96R
FAIRFIELD *      N/A    N/A N/A N/A MISG        N/A
FORT MADISON * MOSUNNY   72  61  68 S7        29.97R
KEOKUK *       MOSUNNY   72  61  68 S13       29.94F
OSKALOOSA *      N/A     67  61  81 S5        29.95R
OTTUMWA        CLOUDY    69  61  75 S8        29.94R
WASHINGTON *   PTSUNNY   72  61  68 S8        29.95R
$$

ABBREVIATIONS USED IN REMARKS
   TC - TEMPERATURES IN CELSIUS
  WCI - WIND CHILL INDEX
   HX - HEAT INDEX
  VSB - VISIBILITY
$$





USA.gov is the U.S. government's official web portal to all federal, state and local government web resources and services.